Theta_e
306 306 307 307 307 305 301 292 289 306 310 294 294 289 290 297 299 302 299 299 297 295 297 296 290 290 295 298 294 290 292 288 285 290 295 295 291 290 290 283 284 287 285 284
305 306 306 307 307 305 299 292 294 306 303 286 288 292 293 296 296 295 298 297 298 301 298 293 297 293 298 297 295 291 294 288 283 286 291 295 293 292 291 291 290 287 282 286
305 305 306 306 306 305 297 294 288 291 298 295 291 289 290 293 299 298 299 297 300 298 296 299 295 298 302 298 296 307 301 290 287 283 287 293 292 295 295 293 285 289 291 294
304 304 305 306 306 306 293 288 287 291 283 287 289 291 293 291 291 299 300 297 298 297 293 295 294 299 299 300 307 299 296 289 292 296 298 298 296 295 294 292 294 289 293 295
303 304 306 306 306 304 290 284 288 291 288 291 290 292 291 291 294 294 294 294 298 299 295 296 295 297 297 295 300 297 296 290 293 293 297 297 294 296 295 295 295 296 297 295
303 303 305 305 306 303 291 290 295 292 290 290 289 289 291 292 295 296 299 298 297 296 299 303 303 302 301 300 296 295 294 291 287 286 296 294 289 294 292 294 295 296 292 296
303 304 303 304 306 306 299 295 295 291 286 289 289 291 292 292 295 293 297 301 300 304 309 307 304 302 303 303 299 300 293 290 288 286 288 282 293 299 298 294 295 297 300 301
303 304 305 304 306 306 301 299 296 292 287 289 291 292 292 295 296 294 299 302 307 310 306 299 293 292 296 299 302 298 296 291 286 283 282 288 293 297 297 293 291 297 297 297
303 303 304 305 305 306 303 295 299 296 290 289 293 291 293 290 291 291 297 305 305 308 301 295 286 285 293 293 297 301 298 295 289 284 282 280 290 298 300 298 286 298 298 297
303 303 304 305 305 306 303 295 300 293 290 293 295 290 292 295 295 290 293 297 300 304 295 290 289 289 297 291 291 290 290 289 286 284 281 289 298 303 304 286 288 298 298 295
303 303 304 304 305 306 302 297 295 292 293 294 295 298 294 295 297 290 294 296 299 298 292 290 292 292 295 295 295 292 289 286 282 285 283 283 303 301 293 295 297 297 295 293
303 303 304 305 306 306 305 295 295 300 295 293 300 300 302 302 302 299 298 297 298 298 295 295 296 294 295 294 288 297 290 291 288 288 288 295 298 296 297 298 295 294 292 291
303 304 304 306 306 306 305 299 295 294 293 295 296 298 302 309 308 308 297 298 300 298 301 298 296 291 296 290 290 294 297 298 291 291 294 294 295 296 296 295 293 293 293 292
303 304 305 306 306 306 305 298 296 298 296 291 294 303 300 308 310 308 306 303 303 302 300 297 293 294 297 293 294 294 295 296 292 291 293 293 292 293 293 293 293 293 293 292
303 305 305 305 306 306 304 301 299 301 297 288 291 299 303 305 307 305 305 303 300 297 295 294 292 295 295 294 295 291 295 294 290 288 294 292 290 292 294 293 292 292 291 290
304 305 305 306 306 306 297 296 302 298 297 295 289 296 298 301 303 303 301 299 297 296 294 292 293 295 294 290 288 295 297 298 298 294 295 294 293 294 294 293 292 292 291 290
304 305 306 306 306 300 291 291 297 301 296 295 291 290 297 301 299 299 298 299 296 294 291 292 292 293 295 292 289 294 297 298 296 295 293 290 291 290 293 294 293 293 291 290
305 305 306 307 306 304 295 299 303 300 297 298 290 290 292 299 295 292 294 294 294 293 292 292 291 293 294 290 293 296 296 296 295 294 293 292 293 293 292 293 291 289 288 287
304 305 307 300 299 292 294 306 306 298 298 291 293 288 286 298 295 294 292 291 289 291 289 290 292 290 287 294 295 296 296 294 291 292 293 292 291 291 291 291 290 288 287 287
305 298 293 289 294 305 303 297 292 293 297 297 290 294 289 295 293 291 289 288 286 285 288 292 288 288 294 297 299 298 296 293 293 290 289 290 290 290 290 290 290 289 288 287
293 288 288 293 301 295 292 289 288 287 285 290 291 291 289 296 290 289 291 286 287 281 285 287 284 285 293 297 296 298 296 294 294 294 293 292 292 291 291 291 291 289 288 286
295 296 300 294 291 288 285 284 289 286 286 290 288 290 292 293 295 291 291 287 288 283 289 285 282 290 294 294 293 293 294 293 292 293 293 293 293 292 291 291 289 288 288 287
299 296 291 288 285 276 282 282 285 284 289 292 292 290 290 291 292 290 291 287 284 289 283 282 286 292 294 292 292 292 293 293 293 293 294 294 292 292 291 290 290 289 287 286
293 288 274 281 281 283 286 288 285 288 292 291 290 288 288 288 288 289 288 290 288 283 281 283 289 292 294 292 293 292 291 292 293 293 293 292 292 291 291 291 290 289 287 287
290 288 280 282 289 291 290 293 291 291 293 291 289 289 288 286 286 287 287 286 283 283 281 285 291 294 292 292 292 292 291 292 292 292 292 291 291 290 289 289 289 289 289 287
291 290 283 284 283 283 285 287 287 291 292 293 290 286 285 285 286 285 285 284 280 282 287 290 295 297 294 293 293 293 293 292 291 292 292 292 291 289 289 289 289 289 289 288
289 285 286 283 285 285 290 290 288 291 293 290 287 285 285 288 285 284 285 282 285 288 290 292 294 297 296 294 293 293 292 291 291 291 291 290 290 289 289 287 288 288 289 288
Wind_Speed
26 27 28 30 33 31 11 5 4 7 4 3 3 3 9 10 7 2 6 3 2 2 1 1 6 9 12 11 8 10 7 4 3 5 3 6 8 10 8 7 4 3 5 7
25 27 28 29 33 29 7 5 3 1 4 4 4 8 8 6 9 8 3 3 4 2 3 2 2 6 10 6 11 9 7 2 2 6 7 4 4 2 5 7 5 5 7 6
23 24 26 28 30 32 4 4 5 5 4 2 7 8 6 7 7 6 3 4 3 2 1 1 3 4 2 10 9 12 9 3 7 7 5 4 3 4 2 8 5 6 6 3
23 24 25 26 28 30 4 5 3 3 6 6 11 9 4 11 8 6 2 4 7 3 1 1 3 2 6 5 5 5 8 5 2 5 4 5 4 3 2 5 7 7 8 8
22 22 22 24 25 22 5 3 4 5 7 10 11 8 4 11 8 5 5 4 4 9 3 1 4 2 6 4 7 4 3 4 4 3 1 3 7 6 6 5 5 6 8 2
22 22 20 22 22 13 3 3 3 2 5 8 6 6 10 14 16 9 9 11 8 3 9 1 5 5 4 4 1 1 4 7 4 1 3 3 5 3 3 6 6 5 6 6
20 20 21 21 20 18 1 3 2 3 4 7 5 11 18 16 17 9 11 8 2 5 6 6 3 1 3 4 3 6 6 6 4 3 4 1 4 11 19 14 8 6 13 9
20 20 20 20 19 19 4 3 2 2 4 9 11 17 17 18 13 7 5 3 4 7 1 2 4 5 5 4 5 3 4 7 6 6 4 3 3 4 7 6 6 8 15 16
21 20 19 18 18 19 8 3 3 2 4 3 10 11 9 7 10 9 6 5 7 3 2 2 4 3 4 3 3 6 4 7 8 3 6 5 4 1 14 7 4 3 10 17
20 20 21 19 18 17 7 4 2 1 4 5 5 5 6 4 3 4 7 8 5 3 2 2 3 3 2 5 4 5 3 5 6 4 4 3 4 2 2 4 9 7 6 6
20 19 19 19 17 18 8 6 3 2 3 10 5 5 12 8 3 3 6 4 1 1 2 1 2 2 3 2 1 4 5 6 2 4 4 2 2 2 3 8 8 12 11 13
20 19 18 17 18 16 12 3 2 2 4 8 6 15 13 10 9 4 3 2 3 3 2 2 1 2 3 5 4 2 3 4 7 3 2 4 1 10 11 13 17 9 15 9
20 19 18 18 17 15 10 5 3 2 3 6 3 4 5 2 3 4 3 2 4 4 1 3 3 3 3 4 4 4 4 2 7 5 6 11 14 15 15 14 14 11 11 12
21 20 19 17 16 14 12 4 2 2 3 4 7 3 7 3 6 10 8 9 3 5 2 3 1 2 1 1 4 5 1 5 8 11 8 16 10 12 16 16 15 16 13 12
22 21 20 18 17 14 8 4 4 3 2 3 7 11 4 1 7 13 13 11 6 3 3 1 3 2 5 2 3 3 2 11 7 7 13 11 6 7 14 17 15 14 18 12
23 23 22 19 15 11 2 2 3 1 1 3 4 4 6 5 6 11 13 7 2 2 1 2 2 2 4 4 3 6 2 3 10 9 7 15 11 10 11 17 13 13 13 12
23 22 22 17 12 1 3 5 3 2 1 2 4 5 5 6 3 2 4 5 4 3 2 4 1 5 5 4 3 6 9 14 19 21 21 13 4 9 13 17 15 16 14 11
24 23 20 14 7 5 5 3 6 3 2 1 3 5 6 5 3 4 2 4 4 6 3 3 4 4 3 5 4 10 15 18 14 10 11 15 15 15 14 14 13 13 11 9
24 24 6 4 2 1 4 7 1 1 1 2 2 2 4 5 3 2 5 3 4 4 4 4 4 4 4 9 13 13 15 8 15 14 16 15 16 14 11 12 10 13 8 8
19 3 3 2 3 10 4 3 2 1 1 2 3 1 4 2 2 2 2 3 2 3 3 2 5 1 2 3 10 11 14 18 18 17 9 13 12 12 9 8 8 10 9 8
4 4 2 4 9 3 2 1 1 2 2 3 4 4 2 2 2 2 1 1 1 3 5 4 3 2 2 5 8 9 13 14 7 11 11 10 15 13 11 10 10 10 9 8
3 4 4 3 2 2 1 3 3 1 2 3 1 2 3 3 1 2 3 2 3 1 1 4 1 2 3 8 10 9 9 11 11 13 14 13 13 11 11 11 10 9 10 8
2 2 2 1 2 4 3 3 2 2 4 3 4 3 1 4 4 1 2 2 3 1 4 2 4 2 5 7 12 11 11 15 15 13 13 14 12 11 12 11 9 10 9 7
2 2 4 4 3 4 3 3 3 4 2 4 2 2 1 2 3 0 1 0 2 2 1 5 3 5 10 7 10 15 12 15 14 14 13 13 12 10 10 11 10 10 9 7
3 2 4 5 3 1 1 1 0 2 2 2 3 2 2 2 1 1 1 1 3 5 5 4 4 9 11 12 11 13 13 12 12 12 12 11 11 10 8 8 8 9 8 7
3 4 2 2 3 2 2 1 2 2 3 1 2 1 1 3 3 2 5 4 5 5 4 3 8 11 13 13 12 12 12 12 11 10 10 10 10 10 9 7 8 8 8 8
3 4 2 4 3 5 3 3 4 2 1 3 2 2 5 1 2 3 4 5 4 4 2 3 7 11 12 10 11 11 10 10 9 9 8 8 7 8 8 7 6 7 7 7
Wind_Direction
346 346 345 343 338 345 348 327 26 337 340 45 30 316 309 308 329 346 250 227 293 290 306 104 169 192 211 180 128 155 189 149 224 195 205 188 164 171 149 126 201 139 157 261
347 347 344 346 342 348 328 339 299 224 57 20 358 331 319 294 15 326 348 318 288 2 348 70 42 210 222 165 158 153 176 247 355 355 359 8 64 140 118 119 93 180 133 251
348 349 344 348 346 340 355 340 350 344 17 284 337 342 326 324 289 267 207 273 275 296 280 103 352 328 335 184 180 164 113 128 155 183 200 155 16 23 159 121 110 167 201 178
349 352 347 351 350 341 48 18 349 22 317 331 329 322 286 333 348 348 232 283 240 219 258 144 203 331 333 61 96 85 128 155 107 68 121 123 111 71 302 125 147 154 197 187
348 351 348 353 353 348 58 41 353 337 307 289 333 341 332 326 332 296 297 214 296 253 251 8 165 358 15 47 339 93 359 131 106 66 138 130 95 20 61 56 142 83 83 91
347 349 349 349 354 7 27 304 281 279 306 317 341 337 326 312 317 295 259 278 272 219 231 215 137 125 173 190 84 45 108 128 104 117 292 132 56 153 47 54 21 121 152 204
343 341 348 349 348 3 282 245 270 311 306 322 316 302 326 317 316 289 279 290 313 358 101 101 85 105 239 263 259 183 138 102 91 132 35 97 232 118 104 93 29 4 99 114
344 344 345 347 341 344 334 317 266 301 291 302 296 329 325 322 335 334 317 334 357 308 43 117 78 348 19 321 38 120 230 109 93 124 122 298 53 189 134 135 14 9 116 111
339 341 342 344 341 340 337 274 215 281 299 243 318 325 302 324 346 339 312 326 321 346 106 178 129 159 132 269 5 40 82 75 108 127 111 178 249 7 124 100 60 30 123 126
332 334 338 340 340 334 336 275 277 229 276 271 353 290 303 298 307 284 283 333 324 19 42 89 124 159 185 161 191 183 47 42 118 100 112 293 180 351 349 109 198 142 128 93
325 330 332 333 332 332 350 278 209 142 266 286 245 257 301 297 249 297 287 297 313 289 88 115 164 152 156 92 236 192 140 114 113 76 100 169 102 54 181 150 83 119 104 113
325 328 329 330 324 329 338 286 255 248 234 259 288 277 255 243 240 287 284 297 292 308 342 195 253 169 133 146 185 301 99 169 136 99 212 315 327 116 93 105 112 111 111 110
323 324 326 323 321 323 324 290 296 289 268 286 300 250 251 187 187 199 293 315 346 317 304 286 257 116 136 145 222 136 85 116 94 86 359 70 84 86 92 108 107 106 104 107
320 321 321 320 318 318 319 284 244 251 266 282 283 314 307 237 188 223 214 262 262 256 253 235 241 101 88 102 141 99 48 62 113 88 100 82 47 91 107 101 103 98 87 95
317 320 322 321 321 316 305 239 232 246 255 271 288 310 257 179 264 260 254 233 245 233 276 287 118 45 43 31 85 46 343 150 133 178 171 121 144 137 126 117 117 115 113 100
315 317 316 314 318 326 309 276 203 269 197 284 298 286 288 293 190 269 311 310 220 187 158 319 55 132 135 74 63 329 38 107 140 130 108 114 116 114 124 111 111 107 103 106
312 313 308 307 307 194 206 207 219 276 136 260 291 310 293 298 338 299 332 325 337 10 6 32 34 21 48 60 57 351 74 96 104 116 114 96 106 123 108 104 105 102 96 95
311 310 303 304 300 251 278 266 241 163 291 254 296 289 319 351 330 329 25 339 3 7 336 1 30 358 37 72 63 100 107 105 98 87 85 109 116 108 106 109 113 99 98 104
312 308 314 57 123 229 243 226 171 250 218 294 253 278 287 347 336 313 344 32 29 306 35 10 49 337 42 145 139 137 137 116 120 102 111 118 117 119 118 114 112 110 113 107
310 16 34 331 237 311 347 18 37 257 206 228 254 247 275 7 14 314 353 4 49 37 291 349 59 340 317 117 144 135 122 126 124 111 117 120 119 124 127 121 123 122 121 116
23 22 296 267 316 26 22 277 192 206 253 206 234 194 260 312 353 301 56 219 3 54 286 89 358 357 346 101 97 122 138 143 126 125 127 129 134 130 124 116 117 114 115 113
261 288 280 308 339 29 18 266 308 251 264 301 226 252 201 301 32 33 340 36 32 8 300 69 32 243 78 118 113 108 115 112 105 116 115 114 116 122 118 119 120 114 117 121
262 196 240 90 276 40 196 192 213 297 318 359 341 327 70 352 38 349 20 51 241 37 42 206 218 144 106 121 112 101 109 110 107 107 109 111 112 114 118 117 121 125 121 115
228 180 315 184 233 239 180 182 203 248 262 310 297 286 55 344 3 26 28 295 93 67 244 227 203 161 141 133 126 119 121 117 117 118 120 121 121 120 119 127 135 130 124 130
243 151 237 224 249 234 339 338 203 288 299 316 344 334 86 318 346 261 18 152 232 206 224 225 167 138 141 136 132 127 125 127 126 129 129 131 132 129 123 123 122 124 132 132
229 222 258 293 48 309 350 292 263 254 315 360 50 16 9 253 194 176 221 161 219 242 216 211 132 136 149 145 146 144 140 139 136 136 136 135 137 142 143 135 137 139 142 150
219 253 245 169 210 209 230 194 228 249 311 199 136 208 226 283 246 239 178 200 225 233 196 137 133 141 150 141 136 137 139 133 131 132 134 134 126 126 136 148 168 157 161 156